Regional Weather Roundup
Issued by NWS

Current Version | Previous Version | Text Only | Print | Product List | Glossary On
Versions: 1 2 3 4 5 6 7 8 9 10 11 12 13 14 15 16 17 18 19 20 21 22 23 24 25 26 27 28 29 30 31 32 33 34 35 36 37 38 39 40 41 42 43 44 45 46 47 48 49 50
000
ASUS44 KBMX 111710
RWRAL

ALABAMA REGIONAL WEATHER ROUNDUP
NATIONAL WEATHER SERVICE BIRMINGHAM AL
1100 AM CST THU FEB 11 2016

NOTE: "FAIR" INDICATES FEW OR NO CLOUDS BELOW 12,000 FEET
WITH NO SIGNIFICANT WEATHER AND/OR OBSTRUCTIONS TO VISIBILITY.

THE REMARK "TC" DENOTES TEMPERATURE IN DEGREES CELSIUS.

ALZ001>011-014-016>018-020-111800-
NORTH ALABAMA

CITY           SKY/WX    TMP DP  RH WIND       PRES   REMARKS
MUSCLE SHOALS  SUNNY     43  20  39 VRB7      30.19F
HUNTSVILLE     MOSUNNY   47  15  27 E7        30.18F
DECATUR        SUNNY     43  18  36 E8        30.19F
HALEYVILLE     FAIR      46  25  43 VRB5      30.16F
GADSDEN        SUNNY     43  21  41 NE8       30.19F
$$

ALZ012-013-022-023-030>036-040>044-111800-
WEST CENTRAL ALABAMA

CITY           SKY/WX    TMP DP  RH WIND       PRES   REMARKS
TUSCALOOSA     SUNNY     54  36  50 VRB3      30.15F
$$

ALZ015-024>027-033>036-040>044-111800-
CENTRAL ALABAMA

CITY           SKY/WX    TMP DP  RH WIND       PRES   REMARKS
BIRMINGHAM     SUNNY     48  29  47 CALM      30.17F
MONTGOMERY     SUNNY     61  39  44 W10       30.17F
SHELBY CO ARPT SUNNY     54  35  48 VRB5      30.16S
MAXWELL AFB    SUNNY     58  40  49 W8        30.15F
GREENVILLE     FAIR      63  40  42 W14       30.15F
$$

ALZ019-021-028-029-037-038-045>048-111800-
EAST CENTRAL ALABAMA

CITY           SKY/WX    TMP DP  RH WIND       PRES   REMARKS
ANNISTON       SUNNY     47  23  38 CALM      30.18F
ALEXANDER CITY SUNNY     51  38  62 SW3       30.16F
AUBURN         SUNNY     54  36  50 W10G16    30.18F
$$

ALZ051>064-111800-
SOUTHWEST ALABAMA

CITY           SKY/WX    TMP DP  RH WIND       PRES   REMARKS
MOBILE         SUNNY     66  50  56 SW13G22   30.21F
BROOKLEY FIELD SUNNY     67  50  54 SW14G21   30.22F
EVERGREEN      SUNNY     66  44  45 SW14G22   30.18F
$$

ALZ049-050-065>069-111800-
SOUTHEAST ALABAMA

CITY           SKY/WX    TMP DP  RH WIND       PRES   REMARKS
DOTHAN         SUNNY     62  41  46 W13       30.22F
OZARK          SUNNY     64  44  48 SW10G18   30.19F
TROY           SUNNY     63  40  42 SW13      30.18F
EUFAULA        FAIR      64  39  39 SW8       30.17F
$$



USA.gov is the U.S. government's official web portal to all federal, state and local government web resources and services.